Regional Weather Roundup
Issued by NWS New Orleans/Baton Rouge, LA

Home | Current Version | Previous Version | Graphics & Text | Print | Product List | Glossary On
Versions: 1 2 3 4 5 6 7 8 9 10 11 12 13 14 15 16 17 18 19 20 21 22 23 24 25 26 27 28 29 30 31 32 33 34 35 36 37 38 39 40 41 42 43 44 45 46 47 48 49 50
657
ASUS44 KLIX 201401
RWRLIX
NEW ORLEANS REGIONAL WEATHER ROUNDUP
NATIONAL WEATHER SERVICE NEW ORLEANS LA
800 AM CST SAT DEC 20 2014

NOTE: "FAIR" INDICATES FEW OR NO CLOUDS BELOW 12,000 FEET WITH NO
      SIGNIFICANT WEATHER AND/OR OBSTRUCTIONS TO VISIBILITY.
      SKY/WX - SKY CONDITION AND SIGNIFICANT WEATHER.
      TMP - AIR TEMPERATURE.     DP    - DEWPOINT TEMPERATURE.
      RH  - RELATIVE HUMIDITY.   PRES  - PRESSURE.
      HI  - HEAT INDEX.          WCI   - WIND CHILL INDEX.

*  THESE STATIONS ARE NOT NWS OR FAA STATIONS AND ARE NOT UNDER
   NWS QUALITY CONTROL.

LAZ038-040-048-061>063-065>067-069-201500-
SOUTHEAST LOUISIANA

CITY           SKY/WX    TMP DP  RH WIND       PRES   REMARKS
N.O. AUDUBON     N/A     50  50 100 MISG        N/A
N.O. INTL ARPT CLOUDY    51  47  86 NE13      30.13R FOG
N.O. LAKEFRONT CLOUDY    52  47  83 NE16      30.14R
N.O. DOWNTOWN* CLOUDY    50  45  81 N8        30.13R
SLIDELL        CLOUDY    49  46  90 N10       30.13R
BATON ROUGE    CLOUDY    48  45  89 NE5       30.16R
BOOTHVILLE     CLOUDY    54  52  93 N12G23    30.10R
BELLE CHASSE   CLOUDY    50  48  93 NE10      30.12R
BOGALUSA*        N/A     48  45  87 NE7       30.17R
GALLIANO*      NOT AVBL
NEW ROADS*     NOT AVBL
GONZALES*      NOT AVBL
HAMMOND*       NOT AVBL
HOUMA*         NOT AVBL
PORT FOURCHON* CLOUDY    52  50  93 NE17G25   30.12S

$$

MSZ070-080>082-201500-
SOUTHERN MISSISSIPPI

CITY           SKY/WX    TMP DP  RH WIND       PRES   REMARKS
MCCOMB         CLOUDY    46  43  89 NE8       30.17R
GULFPORT       CLOUDY    48  46  93 NE9       30.12S
BILOXI         CLOUDY    47  47 100 NE10      30.13R
PASCAGOULA     CLOUDY    47  46  97 NE12      30.13S
STENNIS ARPT*  CLOUDY    46  43  87 NE7       30.13S

$$

COASTAL OBSERVATIONS
LAKE AND NEARSHORE STATIONS

STATION/POSITION TIME  TEMP    WIND        PRES    WAVE
                       AIR SEA DIR/SP/G            HT/PER
                 (UTC) (F)     (DEG/KT/KT) (MB)    (FT/S)
PASCAGOULA       1300   47      30/ 10/ 14 1019.7
WAVELAND YACHT   1300   48      40/ 13/ 16 1019.0
GRAND ISLE       1300   52 61   40/ 16/ 21 1019.1
SOUTHWEST PASS   1300   56                 1018.0
NEW CANAL        1300   51 56   30/ 15/ 16 1020.1
SHELL BEACH      1300   51 57   40/ 19/ 22 1019.2

OFFSHORE STATIONS

STATION/POSITION TIME  TEMP    WIND        PRES    WAVE
                       AIR SEA DIR/SP/G            HT/PER
                 (UTC) (F)     (DEG/KT/KT) (MB)    (FT/S)
64 S DAUPHIN ISL 1400   65 75   20/ 27/ 33 1015.5    5/ 6

$$




USA.gov is the U.S. government's official web portal to all federal, state and local government web resources and services.